Location: Unspecified
(36.2764°N, 0.0000°E)
Time: 20:58:24
(UTC+00:00)

JUGNU - Visible Passes

Search period start: 04 April 2026 00:00
Search period end: 14 April 2026 00:00
Orbit: 833 x 860 km, 20.0° (Epoch: 29 March)

Date Brightness Start Highest point End Pass type
(mag) Time Alt. Az. Time Alt. Az. Time Alt. Az.
4 Apr ? 19:51:07 10° SW 19:54:27 15° S 19:55:54 14° SSE visible
5 Apr ? 19:34:46 10° SW 19:38:01 15° S 19:40:39 12° SSE visible
6 Apr ? 19:18:27 10° SW 19:21:36 15° S 19:24:46 10° SSE visible
7 Apr ? 19:02:09 10° SW 19:05:11 14° S 19:08:14 10° SSE visible
8 Apr ? 18:45:54 10° SW 18:48:46 14° S 18:51:39 10° SSE visible
